Year,Month,Day,Hour,Minute,Value (Times are PST for windgust in km/hr)
2020,02,23,00,00,3.20
2020,02,23,00,01,6.40
2020,02,23,00,02,11.30
2020,02,23,00,03,8.10
2020,02,23,00,04,11.30
2020,02,23,00,05,9.60
2020,02,23,00,06,6.40
2020,02,23,00,07,1.60
2020,02,23,00,08,6.40
2020,02,23,00,09,1.60
2020,02,23,00,10,4.80
2020,02,23,00,11,6.40
2020,02,23,00,12,6.40
2020,02,23,00,13,6.40
2020,02,23,00,14,8.10
2020,02,23,00,15,8.10
2020,02,23,00,16,9.60
2020,02,23,00,17,9.60
2020,02,23,00,18,9.60
2020,02,23,00,19,12.90
2020,02,23,00,20,6.40
2020,02,23,00,21,11.30
2020,02,23,00,22,6.40
2020,02,23,00,23,8.10
2020,02,23,00,24,6.40
2020,02,23,00,25,4.80
2020,02,23,00,26,8.10
2020,02,23,00,27,3.20
2020,02,23,00,28,3.20
2020,02,23,00,29,3.20
2020,02,23,00,30,6.40
2020,02,23,00,31,6.40
2020,02,23,00,32,1.60
2020,02,23,00,33,8.10
2020,02,23,00,34,4.80
2020,02,23,00,35,3.20
2020,02,23,00,36,8.10
2020,02,23,00,37,9.60
2020,02,23,00,38,8.10
2020,02,23,00,39,9.60
2020,02,23,00,40,4.80
2020,02,23,00,41,4.80
2020,02,23,00,42,3.20
2020,02,23,00,43,14.50
2020,02,23,00,44,8.10
2020,02,23,00,45,14.50
2020,02,23,00,46,12.90
2020,02,23,00,47,8.10
2020,02,23,00,48,8.10
2020,02,23,00,49,4.80
2020,02,23,00,50,8.10
2020,02,23,00,51,12.90
2020,02,23,00,52,14.50
2020,02,23,00,53,4.80
2020,02,23,00,54,4.80
2020,02,23,00,55,17.70
2020,02,23,00,56,9.60
2020,02,23,00,57,9.60
2020,02,23,00,58,19.30
2020,02,23,00,59,8.10
2020,02,23,01,00,6.40
2020,02,23,01,01,6.40
2020,02,23,01,02,9.60
2020,02,23,01,03,14.50
2020,02,23,01,04,9.60
2020,02,23,01,05,3.20
2020,02,23,01,06,9.60
2020,02,23,01,07,9.60
2020,02,23,01,08,11.30
2020,02,23,01,09,8.10
2020,02,23,01,10,9.60
2020,02,23,01,11,9.60
2020,02,23,01,12,9.60
2020,02,23,01,13,8.10
2020,02,23,01,14,8.10
2020,02,23,01,15,8.10
2020,02,23,01,16,8.10
2020,02,23,01,17,8.10
2020,02,23,01,18,9.60
2020,02,23,01,19,11.30
2020,02,23,01,20,11.30
2020,02,23,01,21,9.60
2020,02,23,01,22,11.30
2020,02,23,01,23,8.10
2020,02,23,01,24,16.10
2020,02,23,01,25,9.60
2020,02,23,01,26,8.10
2020,02,23,01,27,4.80
2020,02,23,01,28,16.10
2020,02,23,01,29,14.50
2020,02,23,01,30,8.10
2020,02,23,01,31,8.10
2020,02,23,01,32,14.50
2020,02,23,01,33,12.90
2020,02,23,01,34,11.30
2020,02,23,01,35,19.30
2020,02,23,01,36,14.50
2020,02,23,01,37,9.60
2020,02,23,01,38,9.60
2020,02,23,01,39,11.30
2020,02,23,01,40,8.10
2020,02,23,01,41,3.20
2020,02,23,01,42,11.30
2020,02,23,01,43,3.20
2020,02,23,01,44,11.30
2020,02,23,01,45,8.10
2020,02,23,01,46,8.10
2020,02,23,01,47,11.30
2020,02,23,01,48,14.50
2020,02,23,01,49,11.30
2020,02,23,01,50,11.30
2020,02,23,01,51,16.10
2020,02,23,01,52,11.30
2020,02,23,01,53,8.10
2020,02,23,01,54,11.30
2020,02,23,01,55,6.40
2020,02,23,01,56,11.30
2020,02,23,01,57,6.40
2020,02,23,01,58,11.30
2020,02,23,01,59,11.30
2020,02,23,02,00,17.70
2020,02,23,02,01,17.70
2020,02,23,02,02,6.40
2020,02,23,02,03,4.80
2020,02,23,02,04,9.60
2020,02,23,02,05,19.30
2020,02,23,02,06,11.30
2020,02,23,02,07,19.30
2020,02,23,02,08,19.30
2020,02,23,02,09,9.60
2020,02,23,02,10,3.20
2020,02,23,02,11,12.90
2020,02,23,02,12,8.10
2020,02,23,02,13,16.10
2020,02,23,02,14,14.50
2020,02,23,02,15,9.60
2020,02,23,02,16,3.20
2020,02,23,02,18,17.70
2020,02,23,02,19,14.50
2020,02,23,02,20,8.10
2020,02,23,02,21,16.10
2020,02,23,02,22,14.50
2020,02,23,02,23,16.10
2020,02,23,02,24,14.50
2020,02,23,02,25,9.60
2020,02,23,02,26,14.50
2020,02,23,02,27,14.50
2020,02,23,02,28,11.30
2020,02,23,02,29,11.30
2020,02,23,02,30,8.10
2020,02,23,02,31,9.60
2020,02,23,02,32,9.60
2020,02,23,02,33,11.30
2020,02,23,02,34,6.40
2020,02,23,02,35,11.30
2020,02,23,02,36,11.30
2020,02,23,02,37,17.70
2020,02,23,02,38,19.30
2020,02,23,02,39,16.10
2020,02,23,02,40,11.30
2020,02,23,02,41,20.90
2020,02,23,02,42,9.60
2020,02,23,02,43,8.10
2020,02,23,02,44,9.60
2020,02,23,02,45,4.80
2020,02,23,02,46,16.10
2020,02,23,02,47,17.70
2020,02,23,02,48,22.50
2020,02,23,02,49,24.20
2020,02,23,02,50,24.20
2020,02,23,02,51,22.50
2020,02,23,02,52,20.90
2020,02,23,02,53,19.30
2020,02,23,02,54,19.30
2020,02,23,02,55,17.70
2020,02,23,02,56,19.30
2020,02,23,02,57,19.30
2020,02,23,02,58,20.90
2020,02,23,02,59,22.50
2020,02,23,03,00,8.10
2020,02,23,03,01,19.30
2020,02,23,03,02,20.90
2020,02,23,03,03,11.30
2020,02,23,03,04,11.30
2020,02,23,03,05,24.20
2020,02,23,03,06,22.50
2020,02,23,03,07,14.50
2020,02,23,03,08,22.50
2020,02,23,03,09,22.50
2020,02,23,03,10,19.30
2020,02,23,03,11,14.50
2020,02,23,03,12,8.10
2020,02,23,03,13,4.80
2020,02,23,03,14,6.40
2020,02,23,03,15,17.70
2020,02,23,03,16,16.10
2020,02,23,03,17,9.60
2020,02,23,03,18,19.30
2020,02,23,03,19,25.70
2020,02,23,03,20,11.30
2020,02,23,03,21,11.30
2020,02,23,03,22,22.50
2020,02,23,03,23,17.70
2020,02,23,03,24,16.10
2020,02,23,03,25,22.50
2020,02,23,03,26,17.70
2020,02,23,03,27,22.50
2020,02,23,03,28,22.50
2020,02,23,03,29,17.70
2020,02,23,03,30,22.50
2020,02,23,03,31,33.80
2020,02,23,03,32,17.70
2020,02,23,03,33,11.30
2020,02,23,03,34,22.50
2020,02,23,03,35,19.30
2020,02,23,03,36,20.90
2020,02,23,03,37,14.50
2020,02,23,03,38,19.30
2020,02,23,03,39,16.10
2020,02,23,03,40,19.30
2020,02,23,03,41,14.50
2020,02,23,03,42,16.10
2020,02,23,03,43,20.90
2020,02,23,03,44,11.30
2020,02,23,03,45,27.40
2020,02,23,03,46,27.40
2020,02,23,03,47,24.20
2020,02,23,03,48,17.70
2020,02,23,03,49,22.50
2020,02,23,03,50,17.70
2020,02,23,03,51,19.30
2020,02,23,03,52,14.50
2020,02,23,03,53,29.00
2020,02,23,03,54,24.20
2020,02,23,03,55,24.20
2020,02,23,03,56,32.20
2020,02,23,03,57,27.40
2020,02,23,03,58,30.60
2020,02,23,03,59,20.90
2020,02,23,04,00,17.70
2020,02,23,04,01,24.20
2020,02,23,04,02,20.90
2020,02,23,04,03,24.20
2020,02,23,04,04,24.20
2020,02,23,04,05,24.20
2020,02,23,04,06,20.90
2020,02,23,04,07,32.20
2020,02,23,04,08,19.30
2020,02,23,04,09,24.20
2020,02,23,04,10,24.20
2020,02,23,04,11,20.90
2020,02,23,04,12,19.30
2020,02,23,04,13,29.00
2020,02,23,04,14,24.20
2020,02,23,04,15,24.20
2020,02,23,04,16,12.90
2020,02,23,04,17,22.50
2020,02,23,04,18,25.70
2020,02,23,04,19,20.90
2020,02,23,04,20,29.00
2020,02,23,04,21,22.50
2020,02,23,04,22,17.70
2020,02,23,04,23,22.50
2020,02,23,04,24,22.50
2020,02,23,04,25,27.40
2020,02,23,04,26,17.70
2020,02,23,04,27,29.00
2020,02,23,04,28,29.00
2020,02,23,04,29,33.80
2020,02,23,04,30,16.10
2020,02,23,04,31,22.50
2020,02,23,04,32,22.50
2020,02,23,04,33,30.60
2020,02,23,04,34,22.50
2020,02,23,04,35,27.40
2020,02,23,04,36,16.10
2020,02,23,04,37,16.10
2020,02,23,04,38,24.20
2020,02,23,04,39,11.30
2020,02,23,04,40,12.90
2020,02,23,04,41,17.70
2020,02,23,04,42,16.10
2020,02,23,04,43,11.30
2020,02,23,04,44,14.50
2020,02,23,04,45,22.50
2020,02,23,04,46,19.30
2020,02,23,04,47,11.30
2020,02,23,04,48,14.50
2020,02,23,04,49,22.50
2020,02,23,04,50,20.90
2020,02,23,04,51,14.50
2020,02,23,04,52,22.50
2020,02,23,04,53,20.90
2020,02,23,04,54,29.00
2020,02,23,04,55,20.90
2020,02,23,04,56,32.20
2020,02,23,04,57,30.60
2020,02,23,04,58,29.00
2020,02,23,04,59,25.70
2020,02,23,05,00,20.90
2020,02,23,05,01,9.60
2020,02,23,05,02,30.60
2020,02,23,05,03,17.70
2020,02,23,05,04,19.30
2020,02,23,05,05,9.60
2020,02,23,05,06,20.90
2020,02,23,05,07,22.50
2020,02,23,05,08,17.70
2020,02,23,05,09,25.70
2020,02,23,05,10,20.90
2020,02,23,05,11,20.90
2020,02,23,05,12,19.30
2020,02,23,05,13,17.70
2020,02,23,05,14,25.70
2020,02,23,05,15,27.40
2020,02,23,05,16,8.10
2020,02,23,05,17,16.10
2020,02,23,05,18,17.70
2020,02,23,05,19,16.10
2020,02,23,05,20,19.30
2020,02,23,05,21,25.70
2020,02,23,05,22,25.70
2020,02,23,05,23,16.10
2020,02,23,05,24,22.50
2020,02,23,05,25,30.60
2020,02,23,05,26,16.10
2020,02,23,05,27,22.50
2020,02,23,05,28,25.70
2020,02,23,05,29,27.40
2020,02,23,05,30,25.70
2020,02,23,05,31,24.20
2020,02,23,05,32,20.90
2020,02,23,05,33,33.80
2020,02,23,05,34,32.20
2020,02,23,05,35,33.80
2020,02,23,05,36,24.20
2020,02,23,05,37,16.10
2020,02,23,05,38,17.70
2020,02,23,05,39,17.70
2020,02,23,05,40,35.40
2020,02,23,05,41,35.40
2020,02,23,05,42,14.50
2020,02,23,05,43,27.40
2020,02,23,05,44,22.50
2020,02,23,05,45,25.70
2020,02,23,05,46,17.70
2020,02,23,05,47,33.80
2020,02,23,05,48,27.40
2020,02,23,05,49,29.00
2020,02,23,05,50,27.40
2020,02,23,05,51,19.30
2020,02,23,05,52,27.40
2020,02,23,05,53,25.70
2020,02,23,05,54,30.60
2020,02,23,05,55,30.60
2020,02,23,05,56,24.20
2020,02,23,05,57,20.90
2020,02,23,05,58,14.50
2020,02,23,05,59,11.30
2020,02,23,06,00,17.70
2020,02,23,06,01,24.20
2020,02,23,06,02,17.70
2020,02,23,06,03,14.50
2020,02,23,06,04,19.30
2020,02,23,06,05,19.30
2020,02,23,06,06,16.10
2020,02,23,06,07,20.90
2020,02,23,06,08,17.70
2020,02,23,06,09,19.30
2020,02,23,06,10,32.20
2020,02,23,06,11,17.70
2020,02,23,06,12,22.50
2020,02,23,06,13,20.90
2020,02,23,06,14,17.70
2020,02,23,06,15,19.30
2020,02,23,06,16,19.30
2020,02,23,06,17,19.30
2020,02,23,06,18,11.30
2020,02,23,06,19,19.30
2020,02,23,06,20,24.20
2020,02,23,06,21,17.70
2020,02,23,06,22,14.50
2020,02,23,06,23,14.50
2020,02,23,06,24,19.30
2020,02,23,06,25,16.10
2020,02,23,06,26,12.90
2020,02,23,06,27,22.50
2020,02,23,06,28,24.20
2020,02,23,06,29,19.30
2020,02,23,06,30,14.50
2020,02,23,06,31,16.10
2020,02,23,06,32,17.70
2020,02,23,06,33,20.90
2020,02,23,06,34,14.50
2020,02,23,06,35,19.30
2020,02,23,06,36,17.70
2020,02,23,06,37,12.90
2020,02,23,06,38,16.10
2020,02,23,06,39,19.30
2020,02,23,06,40,20.90
2020,02,23,06,41,25.70
2020,02,23,06,42,17.70
2020,02,23,06,43,14.50
2020,02,23,06,44,20.90
2020,02,23,06,45,14.50
2020,02,23,06,46,12.90
2020,02,23,06,47,19.30
2020,02,23,06,48,16.10
2020,02,23,06,49,17.70
2020,02,23,06,50,20.90
2020,02,23,06,51,19.30
2020,02,23,06,52,14.50
2020,02,23,06,53,19.30
2020,02,23,06,54,14.50
2020,02,23,06,55,16.10
2020,02,23,06,56,16.10
2020,02,23,06,57,9.60
2020,02,23,06,58,16.10
2020,02,23,06,59,11.30
2020,02,23,07,00,16.10
2020,02,23,07,01,22.50
2020,02,23,07,02,17.70
2020,02,23,07,03,17.70
2020,02,23,07,04,16.10
2020,02,23,07,05,14.50
2020,02,23,07,06,11.30
2020,02,23,07,07,9.60
2020,02,23,07,08,12.90
2020,02,23,07,09,8.10
2020,02,23,07,10,14.50
2020,02,23,07,11,8.10
2020,02,23,07,12,16.10
2020,02,23,07,13,16.10
2020,02,23,07,14,9.60
2020,02,23,07,15,9.60
2020,02,23,07,16,14.50
2020,02,23,07,17,14.50
2020,02,23,07,18,8.10
2020,02,23,07,19,9.60
2020,02,23,07,20,4.80
2020,02,23,07,21,11.30
2020,02,23,07,22,8.10
2020,02,23,07,23,9.60
2020,02,23,07,24,14.50
2020,02,23,07,25,8.10
2020,02,23,07,26,9.60
2020,02,23,07,27,6.40
2020,02,23,07,28,14.50
2020,02,23,07,29,8.10
2020,02,23,07,30,8.10
2020,02,23,07,31,6.40
2020,02,23,07,32,9.60
2020,02,23,07,33,8.10
2020,02,23,07,34,8.10
2020,02,23,07,35,8.10
2020,02,23,07,36,6.40
2020,02,23,07,37,4.80
2020,02,23,07,38,4.80
2020,02,23,07,39,16.10
2020,02,23,07,40,6.40
2020,02,23,07,41,9.60
2020,02,23,07,42,11.30
2020,02,23,07,43,9.60
2020,02,23,07,44,17.70
2020,02,23,07,45,17.70
2020,02,23,07,46,8.10
2020,02,23,07,47,16.10
2020,02,23,07,48,14.50
2020,02,23,07,49,8.10
2020,02,23,07,50,11.30
2020,02,23,07,51,6.40
2020,02,23,07,52,8.10
2020,02,23,07,53,6.40
2020,02,23,07,54,8.10
2020,02,23,07,55,4.80
2020,02,23,07,56,4.80
2020,02,23,07,57,8.10
2020,02,23,07,58,8.10
2020,02,23,07,59,8.10
2020,02,23,08,00,9.60
2020,02,23,08,01,6.40
2020,02,23,08,02,4.80
2020,02,23,08,03,8.10
2020,02,23,08,04,9.60
2020,02,23,08,05,8.10
2020,02,23,08,06,6.40
2020,02,23,08,07,16.10
2020,02,23,08,08,11.30
2020,02,23,08,09,8.10
2020,02,23,08,10,11.30
2020,02,23,08,11,9.60
2020,02,23,08,12,11.30
2020,02,23,08,13,6.40
2020,02,23,08,14,8.10
2020,02,23,08,15,9.60
2020,02,23,08,16,12.90
2020,02,23,08,17,14.50
2020,02,23,08,18,16.10
2020,02,23,08,19,16.10
2020,02,23,08,20,16.10
2020,02,23,08,21,16.10
2020,02,23,08,22,17.70
2020,02,23,08,23,12.90
2020,02,23,08,24,11.30
2020,02,23,08,25,20.90
2020,02,23,08,26,11.30
2020,02,23,08,27,22.50
2020,02,23,08,28,14.50
2020,02,23,08,29,30.60
2020,02,23,08,30,29.00
2020,02,23,08,31,20.90
2020,02,23,08,32,27.40
2020,02,23,08,33,19.30
2020,02,23,08,34,20.90
2020,02,23,08,35,19.30
2020,02,23,08,36,19.30
2020,02,23,08,37,27.40
2020,02,23,08,38,17.70
2020,02,23,08,39,14.50
2020,02,23,08,40,17.70
2020,02,23,08,41,16.10
2020,02,23,08,42,16.10
2020,02,23,08,43,11.30
2020,02,23,08,44,17.70
2020,02,23,08,45,14.50
2020,02,23,08,46,14.50
2020,02,23,08,47,16.10
2020,02,23,08,48,24.20
2020,02,23,08,49,25.70
2020,02,23,08,50,16.10
2020,02,23,08,51,16.10
2020,02,23,08,52,25.70
2020,02,23,08,53,19.30
2020,02,23,08,54,19.30
2020,02,23,08,55,14.50
2020,02,23,08,56,17.70
2020,02,23,08,57,19.30
2020,02,23,08,58,24.20
2020,02,23,08,59,20.90
2020,02,23,09,00,12.90
2020,02,23,09,01,22.50
2020,02,23,09,02,29.00
2020,02,23,09,03,20.90
2020,02,23,09,04,19.30
2020,02,23,09,05,17.70
2020,02,23,09,06,17.70
2020,02,23,09,07,11.30
2020,02,23,09,08,14.50
2020,02,23,09,09,22.50
2020,02,23,09,10,17.70
2020,02,23,09,11,19.30
2020,02,23,09,12,22.50
2020,02,23,09,13,29.00
2020,02,23,09,14,27.40
2020,02,23,09,15,37.00
2020,02,23,09,16,24.20
2020,02,23,09,17,19.30
2020,02,23,09,18,29.00
2020,02,23,09,19,20.90
2020,02,23,09,20,22.50
2020,02,23,09,21,25.70
2020,02,23,09,22,22.50
2020,02,23,09,23,24.20
2020,02,23,09,24,27.40
2020,02,23,09,25,29.00
2020,02,23,09,26,24.20
2020,02,23,09,27,19.30
2020,02,23,09,28,14.50
2020,02,23,09,29,32.20
2020,02,23,09,30,24.20
2020,02,23,09,31,25.70
2020,02,23,09,32,35.40
2020,02,23,09,33,24.20
2020,02,23,09,34,33.80
2020,02,23,09,35,27.40
2020,02,23,09,36,30.60
2020,02,23,09,37,33.80
2020,02,23,09,38,32.20
2020,02,23,09,39,30.60
2020,02,23,09,40,30.60
2020,02,23,09,41,35.40
2020,02,23,09,42,27.40
2020,02,23,09,43,29.00
2020,02,23,09,44,27.40
2020,02,23,09,45,25.70
2020,02,23,09,46,22.50
2020,02,23,09,47,33.80
2020,02,23,09,48,32.20
2020,02,23,09,49,37.00
2020,02,23,09,50,30.60
2020,02,23,09,51,48.30
2020,02,23,09,52,32.20
2020,02,23,09,53,24.20
2020,02,23,09,54,25.70
2020,02,23,09,55,27.40
2020,02,23,09,56,22.50
2020,02,23,09,57,22.50
2020,02,23,09,58,25.70
2020,02,23,09,59,19.30
2020,02,23,10,00,20.90
2020,02,23,10,01,32.20
2020,02,23,10,02,33.80
2020,02,23,10,03,37.00
2020,02,23,10,04,32.20
2020,02,23,10,05,32.20
2020,02,23,10,06,30.60
2020,02,23,10,07,25.70
2020,02,23,10,08,17.70
2020,02,23,10,09,9.60
2020,02,23,10,10,20.90
2020,02,23,10,11,14.50
2020,02,23,10,12,17.70
2020,02,23,10,13,20.90
2020,02,23,10,14,20.90
2020,02,23,10,15,19.30
2020,02,23,10,16,16.10
2020,02,23,10,17,19.30
2020,02,23,10,18,19.30
2020,02,23,10,19,22.50
2020,02,23,10,20,19.30
2020,02,23,10,21,16.10
2020,02,23,10,22,17.70
2020,02,23,10,23,19.30
2020,02,23,10,24,11.30
2020,02,23,10,25,9.60
2020,02,23,10,26,24.20
2020,02,23,10,27,32.20
2020,02,23,10,28,30.60
2020,02,23,10,29,24.20
2020,02,23,10,30,24.20
2020,02,23,10,31,22.50
2020,02,23,10,32,19.30
2020,02,23,10,33,32.20
2020,02,23,10,34,37.00
2020,02,23,10,35,27.40
2020,02,23,10,36,25.70
2020,02,23,10,37,37.00
2020,02,23,10,38,33.80
2020,02,23,10,39,37.00
2020,02,23,10,40,40.20
2020,02,23,10,41,35.40
2020,02,23,10,42,24.20
2020,02,23,10,43,22.50
2020,02,23,10,44,29.00
2020,02,23,10,45,22.50
2020,02,23,10,46,27.40
2020,02,23,10,47,20.90
2020,02,23,10,48,27.40
2020,02,23,10,49,19.30
2020,02,23,10,50,29.00
2020,02,23,10,51,22.50
2020,02,23,10,52,24.20
2020,02,23,10,53,30.60
2020,02,23,10,54,25.70
2020,02,23,10,55,22.50
2020,02,23,10,56,32.20
2020,02,23,10,57,25.70
2020,02,23,10,58,29.00
2020,02,23,10,59,22.50
2020,02,23,11,00,25.70
2020,02,23,11,01,29.00
2020,02,23,11,02,32.20
2020,02,23,11,03,22.50
2020,02,23,11,04,17.70
2020,02,23,11,05,29.00
2020,02,23,11,06,29.00
2020,02,23,11,07,27.40
2020,02,23,11,08,27.40
2020,02,23,11,09,22.50
2020,02,23,11,10,27.40
2020,02,23,11,11,24.20
2020,02,23,11,12,22.50
2020,02,23,11,13,24.20
2020,02,23,11,14,27.40
2020,02,23,11,15,30.60
2020,02,23,11,16,33.80
2020,02,23,11,17,27.40
2020,02,23,11,18,17.70
2020,02,23,11,19,35.40
2020,02,23,11,20,38.60
2020,02,23,11,21,30.60
2020,02,23,11,22,27.40
2020,02,23,11,23,29.00
2020,02,23,11,24,27.40
2020,02,23,11,25,25.70
2020,02,23,11,26,25.70
2020,02,23,11,27,25.70
2020,02,23,11,28,32.20
2020,02,23,11,29,35.40
2020,02,23,11,30,40.20
2020,02,23,11,31,38.60
2020,02,23,11,32,35.40
2020,02,23,11,33,37.00
2020,02,23,11,34,35.40
2020,02,23,11,35,38.60
2020,02,23,11,36,35.40
2020,02,23,11,37,30.60
2020,02,23,11,38,25.70
2020,02,23,11,39,27.40
2020,02,23,11,40,27.40
2020,02,23,11,41,37.00
2020,02,23,11,42,27.40
2020,02,23,11,43,22.50
2020,02,23,11,44,20.90
2020,02,23,11,45,25.70
2020,02,23,11,46,20.90
2020,02,23,11,47,33.80
2020,02,23,11,48,37.00
2020,02,23,11,49,20.90
2020,02,23,11,50,37.00
2020,02,23,11,51,35.40
2020,02,23,11,52,37.00
2020,02,23,11,53,27.40
2020,02,23,11,54,37.00
2020,02,23,11,55,38.60
2020,02,23,11,56,35.40
2020,02,23,11,57,25.70
2020,02,23,11,58,29.00
2020,02,23,11,59,29.00
2020,02,23,12,00,32.20
2020,02,23,12,01,35.40
2020,02,23,12,02,41.80
2020,02,23,12,03,33.80
2020,02,23,12,04,29.00
2020,02,23,12,05,37.00
2020,02,23,12,06,27.40
2020,02,23,12,07,29.00
2020,02,23,12,08,35.40
2020,02,23,12,09,32.20
2020,02,23,12,10,22.50
2020,02,23,12,11,38.60
2020,02,23,12,12,27.40
2020,02,23,12,13,25.70
2020,02,23,12,14,32.20
2020,02,23,12,15,19.30
2020,02,23,12,16,27.40
2020,02,23,12,17,30.60
2020,02,23,12,18,24.20
2020,02,23,12,19,27.40
2020,02,23,12,20,40.20
2020,02,23,12,21,38.60
2020,02,23,12,22,45.10
2020,02,23,12,23,49.90
2020,02,23,12,24,37.00
2020,02,23,12,25,38.60
2020,02,23,12,26,37.00
2020,02,23,12,27,35.40
2020,02,23,12,28,37.00
2020,02,23,12,29,43.50
2020,02,23,12,30,35.40
2020,02,23,12,31,29.00
2020,02,23,12,32,40.20
2020,02,23,12,33,54.70
2020,02,23,12,34,66.00
2020,02,23,12,35,72.40
2020,02,23,12,36,25.70
2020,02,23,12,37,48.30
2020,02,23,12,38,30.60
2020,02,23,12,39,38.60
2020,02,23,12,40,35.40
2020,02,23,12,41,30.60
2020,02,23,12,42,38.60
2020,02,23,12,43,37.00
2020,02,23,12,44,25.70
2020,02,23,12,45,43.50
2020,02,23,12,46,32.20
2020,02,23,12,47,35.40
2020,02,23,12,48,49.90
2020,02,23,12,49,43.50
2020,02,23,12,50,38.60
2020,02,23,12,51,41.80
2020,02,23,12,52,49.90
2020,02,23,12,53,38.60
2020,02,23,12,54,37.00
2020,02,23,12,55,41.80
2020,02,23,12,56,41.80
2020,02,23,12,57,38.60
2020,02,23,12,58,45.10
2020,02,23,12,59,51.50
2020,02,23,13,00,53.10
2020,02,23,13,01,37.00
2020,02,23,13,02,40.20
2020,02,23,13,03,46.70
2020,02,23,13,04,45.10
2020,02,23,13,05,46.70
2020,02,23,13,06,41.80
2020,02,23,13,07,37.00
2020,02,23,13,08,57.90
2020,02,23,13,09,41.80
2020,02,23,13,10,41.80
2020,02,23,13,11,45.10
2020,02,23,13,12,38.60
2020,02,23,13,13,40.20
2020,02,23,13,14,37.00
2020,02,23,13,15,43.50
2020,02,23,13,16,46.70
2020,02,23,13,17,40.20
2020,02,23,13,18,41.80
2020,02,23,13,19,43.50
2020,02,23,13,20,48.30
2020,02,23,13,21,45.10
2020,02,23,13,22,41.80
2020,02,23,13,23,43.50
2020,02,23,13,24,43.50
2020,02,23,13,25,46.70
2020,02,23,13,26,41.80
2020,02,23,13,27,48.30
2020,02,23,13,28,27.40
2020,02,23,13,29,54.70
2020,02,23,13,30,33.80
2020,02,23,13,31,45.10
2020,02,23,13,32,33.80
2020,02,23,13,33,32.20
2020,02,23,13,34,40.20
2020,02,23,13,35,43.50
2020,02,23,13,36,48.30
2020,02,23,13,37,29.00
2020,02,23,13,38,56.30
2020,02,23,13,39,53.10
2020,02,23,13,40,29.00
2020,02,23,13,41,32.20
2020,02,23,13,42,38.60
2020,02,23,13,43,53.10
2020,02,23,13,44,56.30
2020,02,23,13,45,43.50
2020,02,23,13,46,37.00
2020,02,23,13,47,41.80
2020,02,23,13,48,51.50
2020,02,23,13,49,40.20
2020,02,23,13,50,51.50
2020,02,23,13,51,45.10
2020,02,23,13,52,24.20
2020,02,23,13,53,33.80
2020,02,23,13,54,45.10
2020,02,23,13,55,48.30
2020,02,23,13,56,30.60
2020,02,23,13,57,29.00
2020,02,23,13,58,20.90
2020,02,23,13,59,27.40
2020,02,23,14,00,30.60
2020,02,23,14,01,33.80
2020,02,23,14,02,27.40
2020,02,23,14,03,48.30
2020,02,23,14,04,37.00
2020,02,23,14,05,32.20
2020,02,23,14,06,35.40
2020,02,23,14,07,29.00
2020,02,23,14,08,35.40
2020,02,23,14,09,37.00
2020,02,23,14,10,45.10
2020,02,23,14,11,24.20
2020,02,23,14,12,32.20
2020,02,23,14,13,40.20
2020,02,23,14,14,56.30
2020,02,23,14,15,37.00
2020,02,23,14,16,41.80
2020,02,23,14,17,40.20
2020,02,23,14,18,49.90
2020,02,23,14,19,48.30
2020,02,23,14,20,38.60
2020,02,23,14,21,45.10
2020,02,23,14,22,38.60
2020,02,23,14,23,32.20
2020,02,23,14,24,29.00
2020,02,23,14,25,27.40
2020,02,23,14,26,27.40
2020,02,23,14,27,25.70
2020,02,23,14,28,35.40
2020,02,23,14,29,30.60
2020,02,23,14,30,40.20
2020,02,23,14,31,40.20
2020,02,23,14,32,43.50
2020,02,23,14,33,46.70
2020,02,23,14,34,40.20
2020,02,23,14,35,40.20
2020,02,23,14,36,43.50
2020,02,23,14,37,53.10
2020,02,23,14,38,38.60
2020,02,23,14,39,38.60
2020,02,23,14,40,30.60
2020,02,23,14,41,20.90
2020,02,23,14,42,25.70
2020,02,23,14,43,29.00
2020,02,23,14,44,35.40
2020,02,23,14,45,32.20
2020,02,23,14,46,43.50
2020,02,23,14,47,41.80
2020,02,23,14,48,27.40
2020,02,23,14,49,40.20
2020,02,23,14,50,54.70
2020,02,23,14,51,49.90
2020,02,23,14,52,46.70
2020,02,23,14,53,38.60
2020,02,23,14,54,33.80
2020,02,23,14,55,25.70
2020,02,23,14,56,22.50
2020,02,23,14,57,33.80
2020,02,23,14,58,32.20
2020,02,23,14,59,35.40
2020,02,23,15,00,41.80
2020,02,23,15,01,38.60
2020,02,23,15,02,17.70
2020,02,23,15,03,29.00
2020,02,23,15,04,30.60
2020,02,23,15,05,32.20
2020,02,23,15,06,33.80
2020,02,23,15,07,24.20
2020,02,23,15,08,45.10
2020,02,23,15,09,40.20
2020,02,23,15,10,29.00
2020,02,23,15,11,32.20
2020,02,23,15,12,38.60
2020,02,23,15,13,46.70
2020,02,23,15,14,38.60
2020,02,23,15,15,41.80
2020,02,23,15,16,45.10
2020,02,23,15,17,33.80
2020,02,23,15,18,45.10
2020,02,23,15,19,46.70
2020,02,23,15,20,41.80
2020,02,23,15,21,38.60
2020,02,23,15,22,33.80
2020,02,23,15,23,24.20
2020,02,23,15,24,37.00
2020,02,23,15,25,40.20
2020,02,23,15,26,43.50
2020,02,23,15,27,33.80
2020,02,23,15,28,35.40
2020,02,23,15,29,35.40
2020,02,23,15,30,32.20
2020,02,23,15,31,38.60
2020,02,23,15,32,25.70
2020,02,23,15,33,30.60
2020,02,23,15,34,40.20
2020,02,23,15,35,41.80
2020,02,23,15,36,40.20
2020,02,23,15,37,43.50
2020,02,23,15,38,38.60
2020,02,23,15,39,53.10
2020,02,23,15,40,40.20
2020,02,23,15,41,43.50
2020,02,23,15,42,25.70
2020,02,23,15,43,51.50
2020,02,23,15,44,38.60
2020,02,23,15,45,25.70
2020,02,23,15,46,45.10
2020,02,23,15,47,53.10
2020,02,23,15,48,46.70
2020,02,23,15,49,37.00
2020,02,23,15,50,41.80
2020,02,23,15,51,43.50
2020,02,23,15,52,37.00
2020,02,23,15,53,38.60
2020,02,23,15,54,33.80
2020,02,23,15,55,33.80
2020,02,23,15,56,37.00
2020,02,23,15,57,30.60
2020,02,23,15,58,38.60
2020,02,23,15,59,29.00
2020,02,23,16,00,37.00
2020,02,23,16,01,38.60
2020,02,23,16,02,45.10
2020,02,23,16,03,41.80
2020,02,23,16,04,41.80
2020,02,23,16,05,33.80
2020,02,23,16,06,48.30
2020,02,23,16,07,35.40
2020,02,23,16,08,51.50
2020,02,23,16,09,45.10
2020,02,23,16,10,40.20
2020,02,23,16,11,29.00
2020,02,23,16,12,35.40
2020,02,23,16,13,27.40
2020,02,23,16,14,35.40
2020,02,23,16,15,38.60
2020,02,23,16,16,41.80
2020,02,23,16,17,32.20
2020,02,23,16,18,49.90
2020,02,23,16,19,53.10
2020,02,23,16,20,35.40
2020,02,23,16,21,38.60
2020,02,23,16,22,38.60
2020,02,23,16,23,37.00
2020,02,23,16,24,37.00
2020,02,23,16,25,35.40
2020,02,23,16,26,40.20
2020,02,23,16,27,49.90
2020,02,23,16,28,32.20
2020,02,23,16,29,48.30
2020,02,23,16,30,54.70
2020,02,23,16,31,43.50
2020,02,23,16,32,49.90
2020,02,23,16,33,41.80
2020,02,23,16,34,25.70
2020,02,23,16,35,33.80
2020,02,23,16,36,45.10
2020,02,23,16,37,33.80
2020,02,23,16,38,46.70
2020,02,23,16,39,32.20
2020,02,23,16,40,32.20
2020,02,23,16,41,32.20
2020,02,23,16,42,30.60
2020,02,23,16,43,27.40
2020,02,23,16,44,19.30
2020,02,23,16,45,40.20
2020,02,23,16,46,46.70
2020,02,23,16,47,48.30
2020,02,23,16,48,46.70
2020,02,23,16,49,33.80
2020,02,23,16,50,38.60
2020,02,23,16,51,38.60
2020,02,23,16,52,37.00
2020,02,23,16,53,46.70
2020,02,23,16,54,51.50
2020,02,23,16,55,33.80
2020,02,23,16,56,29.00
2020,02,23,16,57,49.90
2020,02,23,16,58,53.10
2020,02,23,16,59,43.50
2020,02,23,17,00,46.70
2020,02,23,17,01,27.40
2020,02,23,17,02,41.80
2020,02,23,17,03,45.10
2020,02,23,17,04,19.30
2020,02,23,17,05,22.50
2020,02,23,17,06,32.20
2020,02,23,17,07,37.00
2020,02,23,17,08,53.10
2020,02,23,17,09,48.30
2020,02,23,17,10,30.60
2020,02,23,17,11,49.90
2020,02,23,17,12,49.90
2020,02,23,17,13,46.70
2020,02,23,17,14,57.90
2020,02,23,17,15,37.00
2020,02,23,17,16,29.00
2020,02,23,17,17,45.10
2020,02,23,17,18,43.50
2020,02,23,17,19,45.10
2020,02,23,17,20,48.30
2020,02,23,17,21,32.20
2020,02,23,17,22,22.50
2020,02,23,17,23,41.80
2020,02,23,17,24,24.20
2020,02,23,17,25,38.60
2020,02,23,17,26,41.80
2020,02,23,17,27,37.00